Temp_Advection
nan nan nan nan nan nan nan nan nan nan nan nan nan nan nan nan nan nan nan nan nan nan nan nan nan nan nan nan nan nan nan nan nan nan nan nan nan nan nan nan nan nan nan nan nan
nan -0 -0 -0 -0 -0 -0 -0 -0 -0 -0 -0 -0 -0 -0 -0 -0 -0 -1 -1 -0 0 1 -0 -1 -1 -1 -0 -0 -1 -0 0 0 -0 -1 -1 -0 -0 -1 -1 -0 -0 -0 -0 nan
nan -0 -1 -0 -0 -0 -0 -0 -0 -0 -0 -0 -0 -0 -0 -0 -0 -0 -0 -0 0 1 0 -0 -0 -1 -1 -0 -0 -0 -0 -0 -0 -0 -0 -1 -0 -0 -0 -0 -0 -0 -0 -0 nan
nan -1 -1 -1 -1 -0 -0 -0 -0 -0 -0 -0 -0 -0 -0 -1 -0 0 0 0 1 1 -0 -0 -1 -1 -0 -0 -0 -0 -0 -0 -0 -0 -0 -0 -0 -0 -0 -0 -0 -0 -0 -1 nan
nan -1 -1 -1 -1 -1 -0 -0 -0 -0 -0 -0 -0 -0 -0 -0 -1 0 -0 0 0 1 -1 -1 -1 -1 -0 0 -0 -0 -0 -0 -0 0 -0 -0 -0 -0 -0 -0 -0 -0 -0 -0 nan
nan -1 -1 -1 -1 -1 -0 -1 -0 -0 -0 -0 -0 0 -0 -1 -0 -0 -0 0 0 -0 -1 -1 -0 -0 -0 -0 0 -0 0 -0 -0 -0 0 -0 -0 -0 -0 -0 -0 -0 -1 -0 nan
nan -0 -1 -1 -1 -1 -1 -1 -1 -0 -0 -0 0 0 -1 -1 -0 -0 0 0 0 -0 -0 -0 -0 -0 -0 0 0 -0 -0 -0 -0 -0 -0 -0 -0 -0 -1 -1 -1 -1 -1 -0 nan
nan -0 -1 -0 -1 -1 -1 -1 -1 -0 -0 0 0 -0 -1 -0 -0 0 0 -0 -0 -0 -0 0 0 -1 -0 0 -0 -0 -0 -0 -0 -0 -0 -0 -0 -0 -1 -1 -1 -1 -1 -0 nan
nan -1 -0 -1 -1 -1 -1 -1 -1 -0 -0 0 0 -0 -1 0 -0 -0 -0 -0 -0 -0 -0 -0 -1 -1 -1 -1 -0 -0 -0 -0 -0 -0 -0 -0 -0 -1 -0 -1 -1 -1 -0 -0 nan
nan -1 -0 -0 -1 -1 -0 -0 -0 -0 0 0 -0 -1 -1 -0 -0 0 -0 -0 -0 -0 -1 -1 -1 -1 -1 -0 -0 -0 -0 -0 -1 -0 -0 -0 -0 -1 -0 -0 -0 -0 -0 -0 nan
nan -1 -0 -0 -0 -1 -0 -0 -0 0 -1 -1 -0 -0 -0 0 -0 -0 -0 -0 -0 -1 -1 -1 -1 -1 -1 -1 -0 0 0 0 -0 -0 -0 -0 -0 -0 -1 -0 -0 -0 -0 -0 nan
nan -1 -1 -0 -0 -0 -0 -0 -0 -0 -1 -1 0 -0 0 0 -0 -1 -0 -0 -1 -1 -0 -0 -1 -2 -0 0 1 0 -0 0 -0 0 -0 0 0 0 -1 -0 -0 -0 -0 -0 nan
nan -1 -1 -0 -0 -0 -0 -0 0 -0 -1 -1 -0 -1 -0 -1 -1 -0 -0 -1 -1 -0 -0 -1 -1 -0 1 1 -0 -0 -0 -0 0 0 -0 0 -0 -0 -0 -0 -0 -0 -0 -0 nan
nan -1 -2 -1 -0 -0 -0 -0 -0 -1 -1 -0 -0 -0 -0 -1 -1 -0 -1 -0 -0 -0 -0 -1 -0 1 1 -0 -1 -0 -0 0 0 -0 -0 -0 -0 -0 0 0 0 -0 -0 -0 nan
nan -0 -1 -1 -1 -0 -0 -0 0 -0 -1 0 -1 -0 -0 -1 -0 -0 -0 -0 -0 -0 0 -0 1 0 -1 -1 -0 -0 0 0 0 -0 0 0 -0 0 -0 -0 -1 -0 -0 -0 nan
nan -0 -0 -0 -1 -0 -0 -0 -0 -1 -1 0 -0 -1 -1 -1 0 -0 -1 -1 -0 0 0 -0 0 -1 -1 -0 0 0 0 1 0 1 0 -1 -0 -0 -1 -0 -1 -1 -0 -0 nan
nan -0 -0 -0 -0 -1 -0 -0 -1 -1 0 0 -0 -1 -1 -1 -0 -0 -1 -0 -0 -0 -1 0 0 -0 0 0 1 1 -0 0 0 0 -1 -0 0 -1 -0 -0 -0 -0 0 -0 nan
nan -1 -1 -1 -0 0 -0 -1 -1 -0 -0 0 -0 0 0 -0 -0 -0 -0 -1 -1 -1 -0 0 -0 -1 -0 -0 -0 -0 -0 0 -0 -1 -0 -0 -0 -1 -0 0 0 0 -0 0 nan
nan -1 -0 -1 -1 0 -1 -1 -1 -0 -0 0 0 -0 -0 0 0 0 -0 -1 -1 -0 -0 -0 -1 -1 -0 -0 -0 -1 -1 -0 -0 1 -0 -0 -0 -0 -0 -0 -0 0 -0 -0 nan
nan -0 -0 -0 0 -0 -2 -2 -1 0 -1 -0 -1 -0 -0 -0 0 -0 -0 -1 -1 -0 -0 -0 -0 0 0 0 0 0 1 1 0 1 -1 -0 -0 -0 -0 -0 -0 -0 -0 0 nan
nan 0 0 -0 -0 -2 -2 -1 -0 0 -0 -1 -0 -0 -0 -0 -0 -0 -0 -0 -0 -0 0 0 -0 0 1 0 -0 0 -0 -1 -0 1 0 -1 -1 -1 -0 -0 -0 0 0 0 nan
nan -0 0 -0 -2 -1 -1 0 -0 -1 -1 -0 -0 -1 -1 0 0 -0 -0 0 1 0 1 -0 0 1 0 -1 -0 0 -0 -0 1 -0 -1 -0 -1 -0 -0 0 0 0 1 1 nan
nan -0 0 -0 -1 -0 1 0 -1 -1 -1 -0 -0 -1 -0 0 -0 -0 0 -0 -0 -0 1 1 0 0 -1 0 0 -0 -0 0 -0 0 1 -0 -1 -0 0 0 0 0 0 1 nan
nan -0 0 -0 -0 -1 -1 -1 -1 -1 -1 -1 -1 -0 0 -0 -0 0 0 0 -0 1 0 -1 0 -0 -0 -1 -0 -0 -0 0 1 0 -0 -0 -1 -0 0 -0 -0 0 1 1 nan
nan -0 -0 -0 0 -0 -0 -0 -1 -1 -0 -1 -0 -0 0 -0 -0 -0 -0 0 -0 0 -1 0 1 -1 -0 -1 0 -0 0 0 -0 -0 -0 -1 -1 -1 -0 -0 -0 0 1 1 nan
nan -0 -0 -1 -0 -0 -0 -1 -0 -0 -1 -0 -0 -1 -2 -2 -0 1 0 0 0 -0 0 0 0 0 0 -0 0 0 -0 -0 -0 -0 -1 -0 -1 -0 0 0 0 1 1 1 nan
nan nan nan nan nan nan nan nan nan nan nan nan nan nan nan nan nan nan nan nan nan nan nan nan nan nan nan nan nan nan nan nan nan nan nan nan nan nan nan nan nan nan nan nan nan
Wind_Speed
13 13 13 14 14 14 14 14 15 14 14 13 14 14 15 15 15 16 14 11 11 12 11 9 8 8 7 6 7 6 5 4 7 2 10 11 12 7 5 15 6 4 13 25 25
14 14 14 14 14 14 15 15 15 15 14 14 14 14 15 15 15 16 15 15 13 16 16 13 9 9 6 5 4 8 4 7 5 9 11 10 9 10 14 11 8 11 17 26 25
13 14 16 16 16 16 15 15 15 15 15 14 13 13 14 14 13 5 8 17 18 16 14 11 8 9 9 5 3 2 4 7 6 8 14 14 10 9 12 8 10 19 27 26 24
16 15 15 16 17 17 17 16 16 16 15 14 13 13 13 10 5 4 3 4 20 17 15 14 11 11 8 5 2 7 2 1 7 10 14 11 13 9 12 7 11 21 26 26 24
17 17 17 17 17 18 18 18 17 16 16 14 14 12 12 7 12 10 8 5 18 22 21 18 16 13 9 2 4 7 4 5 9 12 12 12 8 7 6 6 18 23 23 23 22
18 19 19 18 18 18 18 19 18 17 16 14 13 12 9 13 9 8 10 8 14 23 22 20 13 13 7 4 5 3 5 11 13 13 11 8 9 6 7 14 21 23 23 22 20
19 20 20 20 19 19 18 20 18 17 16 14 12 11 11 15 9 7 6 10 14 21 22 21 13 12 5 6 4 6 12 12 13 13 9 8 9 4 15 18 19 21 21 20 20
20 20 20 20 20 19 18 18 18 16 14 12 11 9 9 10 8 13 7 8 11 16 17 18 12 12 9 4 8 10 11 11 11 12 6 8 9 10 17 19 19 19 19 20 20
21 21 20 20 20 19 17 17 16 15 12 8 7 6 9 8 10 12 13 11 15 13 13 14 12 14 10 12 10 10 12 10 11 13 8 11 6 11 16 18 18 19 19 19 20
23 22 21 20 20 18 15 15 13 11 9 5 9 5 11 8 7 14 16 14 14 15 13 14 14 11 12 13 13 16 14 13 10 13 11 11 6 10 17 18 19 20 20 20 21
23 24 23 20 20 17 11 7 4 3 7 10 2 4 4 9 5 12 19 15 13 18 15 20 15 19 21 18 14 8 15 14 10 12 14 12 10 12 16 19 19 20 21 22 23
22 22 24 21 19 10 7 1 3 5 11 16 21 20 12 6 9 15 21 17 18 17 19 14 21 21 18 18 13 13 14 13 8 10 12 10 14 12 17 23 23 23 23 24 23
24 24 22 20 11 13 5 4 4 10 8 10 19 21 20 22 16 20 25 25 18 19 21 19 18 19 17 16 17 17 17 16 11 11 12 6 13 14 16 21 23 24 23 24 25
25 25 25 19 5 11 1 7 12 7 5 9 9 8 18 16 17 22 24 24 13 21 19 21 17 20 19 22 20 18 15 15 11 10 10 11 10 8 13 17 22 27 27 27 27
25 23 24 19 15 7 7 8 10 1 6 8 9 8 11 21 12 30 24 26 17 14 16 17 19 20 23 23 21 16 14 13 14 14 7 11 8 5 6 13 21 27 30 31 30
26 23 24 19 16 5 4 6 2 6 8 8 10 12 15 22 11 25 30 24 19 15 17 16 8 18 22 21 19 8 12 13 11 13 11 15 11 13 9 12 13 24 30 32 32
26 25 21 20 6 12 8 3 6 8 4 10 10 14 17 14 18 16 26 25 16 18 16 20 13 14 19 22 16 18 18 10 11 11 13 9 8 15 4 5 7 14 25 31 30
26 26 20 15 11 10 5 7 13 5 13 2 6 13 16 14 20 19 24 24 25 21 15 19 18 21 17 21 17 25 21 14 17 14 15 10 11 14 8 9 11 10 12 23 32
25 19 12 11 9 8 10 14 7 13 8 6 8 13 16 14 10 21 24 26 27 24 17 20 23 27 16 22 22 23 24 22 22 20 10 10 11 9 13 13 10 10 14 19 24
25 16 6 9 7 6 10 20 16 6 7 8 15 12 15 18 15 20 21 25 26 27 23 10 14 15 22 20 22 24 19 18 13 21 21 18 18 9 9 11 10 8 10 12 18
15 10 4 4 3 10 12 19 17 19 12 8 9 15 12 10 18 18 15 15 27 26 22 18 12 17 18 24 20 13 16 15 20 20 19 17 17 14 13 13 9 10 12 9 12
8 5 4 4 8 10 11 11 6 16 25 16 7 11 14 13 13 16 20 16 19 23 27 23 14 12 21 21 24 24 22 24 16 21 12 15 15 8 9 11 9 13 14 8 11
11 10 7 3 6 10 11 10 13 18 17 17 17 12 8 12 9 14 13 1 6 21 24 22 13 14 18 13 12 20 25 24 23 20 23 18 17 14 11 9 13 10 14 11 10
7 4 3 4 4 7 7 13 12 12 16 23 19 19 17 15 11 4 10 5 8 20 9 18 20 22 18 21 16 19 20 22 22 18 20 19 19 15 13 12 13 13 16 12 12
4 1 4 2 2 7 7 8 10 11 11 10 14 21 19 18 18 15 11 6 6 5 11 16 21 22 24 22 19 21 22 20 24 24 23 22 26 22 20 14 17 14 16 14 14
6 5 2 12 10 10 6 10 7 3 7 8 8 12 14 18 16 16 16 12 8 10 13 9 11 18 21 21 20 19 19 21 26 25 24 24 20 12 20 22 12 13 16 18 17
5 8 7 7 7 7 7 6 6 7 6 6 5 13 7 3 13 17 16 15 6 5 8 7 10 11 17 21 21 23 31 29 25 21 20 22 17 16 16 17 19 18 18 18 21
Wind_Direction
323 323 322 322 320 320 318 316 316 315 316 316 316 315 313 311 303 291 275 250 249 222 191 178 185 195 199 253 245 280 262 41 82 65 112 133 127 116 112 130 133 151 149 153 154
321 317 315 315 314 313 313 312 311 309 309 309 311 313 314 313 306 285 265 247 230 217 190 191 201 197 231 250 237 264 298 39 13 91 123 133 134 129 145 137 135 132 135 151 156
320 318 317 312 311 310 310 310 308 307 304 303 306 309 314 318 313 246 240 224 212 213 196 208 219 210 253 254 204 292 305 33 100 98 127 132 125 148 155 171 159 155 151 157 161
323 319 316 312 310 309 309 308 306 303 301 300 302 304 309 313 289 204 153 184 197 187 192 192 203 226 250 230 204 274 43 48 115 135 129 139 130 141 173 61 155 158 159 161 167
322 319 318 316 312 308 307 305 304 301 297 297 297 298 304 268 258 244 239 270 189 186 191 197 210 229 249 241 239 259 18 150 141 138 127 130 129 105 139 134 151 155 162 167 171
328 322 318 315 313 309 306 303 302 299 295 292 289 289 284 262 254 243 232 217 202 190 196 201 217 230 293 238 282 338 99 140 143 134 144 134 131 171 130 143 152 160 167 173 178
330 326 320 316 313 309 305 303 303 298 295 290 282 276 262 253 255 223 181 174 186 195 201 203 221 222 212 186 171 146 131 133 144 150 152 150 160 110 147 154 161 170 175 179 185
334 329 324 320 314 310 306 300 301 297 291 285 276 263 258 252 228 215 200 189 190 189 203 199 215 233 235 155 176 193 184 168 156 167 152 225 115 128 160 168 173 180 183 186 191
336 334 331 327 319 313 307 301 299 294 287 273 261 220 260 249 224 207 189 174 157 166 184 204 206 223 191 209 193 196 192 194 161 197 154 218 81 145 174 182 183 188 190 194 197
334 333 332 334 325 318 310 305 299 286 274 259 229 240 228 200 166 172 175 171 166 163 161 185 199 210 219 208 207 190 239 183 180 186 198 202 204 157 186 195 196 196 197 198 201
333 332 330 338 330 325 316 325 303 246 230 232 221 229 149 169 168 173 167 163 174 182 187 193 202 206 201 214 236 236 215 201 190 158 202 223 224 190 193 205 205 202 201 206 206
330 330 328 341 337 345 342 16 64 315 297 245 241 237 227 180 183 176 178 183 180 196 203 180 218 204 207 212 229 232 229 222 136 172 214 234 238 236 189 213 211 205 204 209 206
330 329 326 341 344 4 89 56 352 342 261 256 225 229 217 213 218 187 185 200 198 205 198 211 203 208 209 199 219 228 226 222 218 176 220 273 259 230 215 213 216 215 212 210 211
328 331 328 337 19 350 334 316 340 329 268 176 201 220 193 191 219 207 195 190 208 209 202 229 213 196 200 205 207 216 226 237 182 206 227 192 283 202 196 206 215 215 211 210 210
324 328 326 333 321 329 262 295 324 263 273 119 145 164 171 187 162 194 194 200 204 200 195 204 202 202 206 203 205 233 171 217 205 220 249 203 252 242 183 205 213 216 213 213 209
322 324 321 327 321 283 280 300 303 228 238 170 152 178 168 207 192 162 187 204 218 201 211 223 216 213 210 207 199 192 191 207 218 236 228 250 225 268 173 220 202 212 215 215 211
319 319 317 310 286 278 273 245 215 238 102 182 188 180 196 178 192 183 186 194 192 190 197 214 196 209 223 205 197 185 175 186 214 216 244 236 216 256 290 254 242 193 211 215 213
317 317 320 303 288 263 226 216 230 212 221 83 212 191 197 181 202 195 192 197 208 206 191 195 205 192 202 209 192 208 202 230 217 232 236 172 232 245 259 281 258 209 200 209 214
322 324 317 297 272 235 210 217 216 228 249 230 193 208 204 191 211 199 205 208 202 205 229 200 219 187 200 208 210 205 222 228 247 251 273 240 210 254 249 252 246 232 210 213 215
331 322 292 294 254 195 227 234 231 244 322 257 237 208 209 197 197 195 198 213 212 205 218 198 221 184 196 206 222 224 204 216 231 245 242 240 252 245 219 240 237 218 220 229 223
335 307 271 14 160 211 231 230 242 242 253 266 250 245 236 216 204 198 214 214 210 196 216 217 230 182 203 207 201 199 225 222 240 225 244 246 245 226 243 258 239 231 255 248 235
322 276 301 343 247 233 241 235 308 265 243 245 267 271 265 229 237 232 217 212 208 197 203 215 210 218 206 218 224 220 216 214 226 224 249 259 251 195 200 240 260 265 270 266 258
308 284 285 246 256 233 236 271 256 265 248 250 231 232 239 253 245 239 219 353 235 217 203 199 224 211 230 185 213 233 218 224 226 238 228 229 235 226 198 236 241 256 269 267 250
304 288 192 243 275 296 306 269 261 261 260 265 263 252 248 244 241 238 221 178 221 226 166 221 216 225 214 217 195 211 224 225 236 227 234 236 238 230 205 228 245 246 263 272 248
261 360 338 291 168 314 273 297 276 271 264 297 241 246 247 236 240 219 242 200 179 117 198 213 221 227 232 254 215 204 210 206 222 229 230 232 233 232 248 235 248 250 263 260 243
286 299 290 283 281 270 221 252 266 300 286 247 286 359 289 255 244 229 236 235 216 182 193 213 222 231 227 229 244 235 230 220 218 228 238 245 252 226 237 246 247 243 252 252 243
256 268 267 276 267 270 266 248 285 316 260 282 1 323 275 316 333 301 302 298 316 300 181 216 218 206 225 225 231 241 230 227 233 230 233 238 241 248 233 247 246 249 260 260 256
Height
1541 1539 1537 1535 1534 1532 1530 1529 1527 1525 1524 1522 1520 1519 1517 1516 1514 1513 1513 1515 1515 1516 1517 1518 1519 1521 1522 1521 1519 1514 1501 1501 1503 1505 1514 1521 1523 1529 1531 1534 1536 1539 1541 1547 1554
1539 1537 1535 1533 1531 1530 1528 1527 1525 1523 1521 1520 1518 1516 1515 1513 1511 1509 1510 1510 1512 1514 1516 1517 1520 1520 1519 1517 1515 1509 1501 1501 1500 1503 1510 1519 1522 1528 1531 1534 1538 1541 1545 1551 1555
1538 1535 1533 1530 1529 1527 1525 1524 1522 1520 1519 1517 1516 1514 1513 1511 1508 1505 1503 1504 1508 1511 1516 1518 1519 1519 1515 1513 1510 1506 1501 1502 1504 1506 1512 1519 1524 1528 1529 1532 1537 1541 1546 1551 1556
1535 1533 1531 1528 1525 1524 1522 1520 1519 1517 1515 1514 1513 1512 1510 1510 1506 1502 1501 1501 1505 1510 1515 1517 1517 1515 1511 1508 1509 1507 1503 1506 1506 1511 1514 1519 1524 1527 1529 1531 1536 1542 1547 1551 1555
1532 1530 1528 1525 1523 1520 1518 1516 1515 1513 1512 1511 1510 1509 1508 1508 1504 1501 1501 1501 1503 1507 1512 1514 1514 1512 1508 1506 1507 1505 1504 1507 1510 1513 1516 1522 1525 1527 1531 1535 1538 1543 1548 1552 1555
1530 1527 1524 1522 1520 1517 1515 1512 1511 1509 1508 1507 1507 1506 1506 1505 1498 1498 1499 1499 1501 1505 1509 1512 1511 1511 1510 1507 1506 1505 1505 1507 1511 1515 1520 1520 1526 1527 1535 1537 1540 1544 1548 1551 1555
1528 1525 1522 1519 1516 1513 1511 1508 1506 1505 1504 1503 1503 1503 1503 1499 1496 1496 1497 1498 1501 1504 1507 1510 1511 1512 1508 1506 1508 1507 1507 1509 1512 1516 1519 1520 1525 1523 1533 1538 1542 1545 1547 1551 1554
1526 1522 1519 1515 1512 1509 1507 1504 1502 1501 1500 1499 1500 1500 1498 1493 1493 1495 1496 1497 1499 1502 1507 1510 1511 1510 1509 1508 1506 1503 1501 1507 1511 1514 1519 1518 1523 1526 1533 1536 1540 1543 1546 1550 1553
1523 1519 1516 1512 1508 1505 1503 1500 1498 1496 1496 1496 1497 1498 1494 1489 1490 1492 1495 1497 1499 1503 1506 1509 1511 1507 1506 1501 1500 1498 1501 1497 1511 1510 1516 1517 1516 1525 1531 1534 1537 1541 1544 1547 1551
1520 1516 1513 1509 1505 1501 1499 1496 1494 1493 1493 1493 1494 1500 1489 1487 1488 1490 1493 1497 1499 1502 1505 1507 1507 1502 1496 1493 1504 1498 1496 1493 1503 1509 1511 1513 1513 1522 1528 1531 1533 1537 1541 1544 1547
1517 1513 1509 1506 1502 1498 1497 1495 1496 1494 1490 1485 1484 1483 1484 1486 1486 1489 1491 1495 1497 1499 1495 1500 1498 1496 1488 1485 1480 1482 1489 1494 1492 1499 1507 1507 1509 1511 1524 1527 1529 1532 1536 1539 1542
1515 1511 1506 1504 1500 1497 1495 1497 1495 1496 1489 1480 1479 1480 1482 1483 1484 1486 1489 1491 1492 1492 1490 1496 1493 1483 1484 1485 1486 1491 1492 1491 1494 1499 1505 1501 1505 1505 1512 1519 1521 1525 1529 1533 1537
1512 1508 1504 1501 1498 1497 1496 1496 1495 1494 1490 1471 1470 1471 1475 1480 1479 1478 1484 1485 1486 1487 1485 1483 1479 1479 1482 1487 1492 1487 1490 1488 1494 1499 1500 1503 1502 1498 1500 1510 1515 1519 1522 1527 1531
1509 1506 1502 1499 1500 1497 1498 1495 1494 1493 1481 1456 1462 1461 1467 1471 1473 1474 1477 1481 1480 1481 1483 1480 1474 1477 1485 1485 1484 1489 1480 1481 1490 1502 1507 1498 1510 1487 1487 1499 1505 1510 1514 1518 1523
1507 1504 1500 1500 1498 1498 1497 1494 1493 1494 1479 1450 1455 1458 1460 1461 1453 1464 1472 1476 1473 1475 1479 1477 1473 1481 1481 1477 1478 1480 1477 1484 1488 1495 1494 1500 1509 1484 1488 1494 1495 1499 1504 1509 1514
1504 1501 1498 1497 1495 1495 1493 1493 1494 1488 1474 1445 1448 1451 1455 1457 1455 1458 1466 1472 1472 1473 1478 1467 1474 1474 1471 1471 1474 1477 1483 1486 1489 1490 1510 1494 1499 1487 1478 1481 1482 1490 1495 1500 1506
1500 1498 1496 1494 1496 1492 1491 1494 1486 1471 1444 1440 1441 1442 1442 1447 1450 1456 1458 1463 1465 1478 1477 1472 1473 1471 1470 1472 1474 1478 1485 1507 1516 1509 1510 1478 1494 1485 1467 1470 1472 1476 1486 1492 1500
1496 1493 1490 1488 1488 1488 1490 1489 1476 1445 1440 1437 1436 1436 1440 1437 1444 1447 1451 1456 1455 1455 1457 1470 1482 1465 1466 1463 1472 1477 1472 1486 1516 1505 1493 1484 1499 1481 1466 1468 1469 1473 1477 1484 1489
1492 1489 1487 1484 1484 1485 1489 1473 1451 1445 1440 1438 1436 1437 1436 1433 1435 1441 1442 1443 1443 1445 1456 1458 1460 1452 1457 1461 1460 1470 1472 1462 1476 1469 1487 1470 1470 1467 1465 1465 1464 1466 1471 1476 1480
1490 1488 1486 1481 1481 1484 1481 1462 1447 1448 1448 1443 1439 1428 1430 1429 1437 1434 1436 1430 1434 1439 1442 1447 1461 1448 1454 1457 1456 1452 1461 1478 1474 1501 1502 1482 1478 1474 1463 1462 1458 1460 1463 1467 1472
1491 1487 1481 1479 1480 1481 1464 1455 1451 1451 1452 1446 1436 1431 1428 1422 1424 1424 1424 1423 1427 1433 1442 1439 1448 1446 1449 1453 1454 1463 1463 1458 1457 1464 1486 1491 1474 1450 1459 1458 1456 1457 1459 1462 1465
1493 1484 1480 1479 1479 1466 1457 1456 1459 1452 1450 1447 1444 1441 1430 1424 1427 1419 1422 1420 1421 1425 1437 1437 1443 1450 1451 1441 1443 1441 1449 1453 1465 1475 1462 1464 1461 1438 1448 1452 1454 1457 1458 1461 1462
1493 1486 1480 1480 1467 1456 1458 1462 1460 1454 1447 1444 1441 1439 1433 1432 1436 1421 1420 1423 1426 1422 1427 1432 1441 1452 1451 1445 1445 1445 1438 1441 1446 1448 1458 1473 1465 1438 1445 1452 1453 1455 1457 1458 1459
1495 1480 1476 1477 1476 1472 1466 1466 1457 1455 1451 1446 1440 1437 1436 1437 1432 1428 1427 1428 1425 1422 1425 1428 1430 1437 1438 1435 1434 1450 1440 1439 1443 1452 1453 1448 1452 1439 1444 1447 1447 1449 1451 1455 1457
1494 1482 1486 1470 1474 1478 1474 1467 1461 1456 1451 1449 1443 1440 1436 1437 1432 1432 1425 1426 1425 1426 1427 1424 1433 1426 1427 1421 1421 1427 1437 1439 1444 1441 1446 1442 1440 1440 1438 1442 1443 1444 1447 1451 1452
1493 1488 1485 1482 1480 1477 1472 1463 1462 1460 1464 1446 1446 1450 1446 1434 1432 1431 1428 1425 1422 1426 1424 1423 1432 1426 1432 1426 1425 1430 1427 1426 1429 1432 1432 1431 1432 1425 1435 1438 1439 1442 1445 1446 1447
1491 1491 1490 1481 1475 1473 1464 1463 1466 1469 1461 1460 1461 1459 1446 1443 1446 1442 1439 1433 1431 1430 1426 1428 1425 1433 1437 1427 1430 1437 1416 1418 1421 1422 1427 1435 1429 1429 1430 1435 1436 1437 1439 1440 1441